Location: Gettysburg
(39.8310°N, 77.2310°W)
Time: 21:26:05
(UTC-04:00)

ATLAS 2AS CENTAUR R/B - Visible Passes

Search period start: 23 April 2017 00:00
Search period end: 03 May 2017 00:00
Orbit: 909 x 1303 km, 63.7° (Epoch: 20 April)

Date Brightness Start Highest point End Pass type
(mag) Time Alt. Az. Time Alt. Az. Time Alt. Az.
23 Apr 4.0 00:56:49 35° ENE 00:56:49 35° ENE 01:01:43 10° NE visible
23 Apr 3.6 02:44:13 44° WNW 02:45:14 46° NW 02:53:00 10° NNE visible
23 Apr 5.0 04:33:45 10° WNW 04:38:33 17° NNW 04:43:25 10° NNE visible
24 Apr 4.6 00:13:05 21° ENE 00:13:05 21° ENE 00:16:16 10° NE visible
24 Apr 3.2 02:00:29 65° NW 02:00:29 65° NW 02:08:15 10° NNE visible
24 Apr 4.8 03:47:53 12° WNW 03:52:51 21° NNW 03:58:44 10° NNE visible
24 Apr 5.3 05:44:46 10° NNW 05:47:31 12° N 05:50:16 10° NNE visible
24 Apr 5.0 23:29:16 12° ENE 23:29:16 12° ENE 23:30:10 10° ENE visible
25 Apr 3.2 01:16:40 65° NE 01:16:40 65° NE 01:23:24 10° NE visible
25 Apr 4.4 03:04:04 21° WNW 03:07:19 28° NW 03:14:05 10° NNE visible
25 Apr 5.2 04:58:16 10° NW 05:01:32 13° N 05:04:50 10° NNE visible
26 Apr 3.7 00:32:49 44° ENE 00:32:49 44° ENE 00:38:25 10° NE visible
26 Apr 4.0 02:20:13 34° WNW 02:21:57 38° NW 02:29:25 10° NNE visible
26 Apr 5.2 04:11:25 10° NW 04:15:38 15° NNW 04:19:53 10° NNE visible
26 Apr 4.2 23:48:54 29° ENE 23:48:54 29° ENE 23:53:12 10° NE visible
27 Apr 3.4 01:36:17 52° WNW 01:36:47 53° NW 01:44:43 10° NNE visible
27 Apr 5.0 03:24:38 10° WNW 03:29:51 18° NNW 03:35:08 10° NNE visible
27 Apr 5.4 05:21:55 10° NNW 05:24:43 12° N 05:27:30 10° NNE visible
27 Apr 4.6 23:04:53 18° ENE 23:04:53 18° ENE 23:07:33 10° ENE visible
28 Apr 3.1 00:52:16 74° NNW 00:52:16 74° NNW 00:59:56 10° NNE visible
28 Apr 4.8 02:39:39 15° WNW 02:44:13 23° NNW 02:50:28 10° NNE visible
28 Apr 5.4 04:35:50 10° NNW 04:38:43 12° N 04:41:36 10° NNE visible
28 Apr 4.9 22:20:48 10° ENE 22:20:48 10° ENE 22:20:51 10° ENE visible
29 Apr 3.1 00:08:10 64° ENE 00:08:10 64° ENE 00:15:02 10° NE visible
29 Apr 4.4 01:55:32 24° WNW 01:58:45 31° NW 02:05:50 10° NNE visible
29 Apr 5.3 03:49:08 10° NW 03:52:46 13° NNW 03:56:25 10° NNE visible
29 Apr 5.4 05:43:51 10° NNW 05:47:50 14° NNE 05:51:45 10° NE visible
29 Apr 3.5 23:23:56 43° E 23:23:56 43° E 23:29:58 10° NE visible
30 Apr 3.9 01:11:18 36° W 01:13:28 43° NW 01:21:09 10° NNE visible
30 Apr 5.2 03:02:17 10° WNW 03:06:54 16° NNW 03:11:35 10° NNE visible
30 Apr 5.5 04:58:49 10° NNW 05:01:54 12° N 05:04:58 10° NNE visible
30 Apr 3.9 22:39:34 28° E 22:39:34 28° E 22:44:36 10° NE visible
01 May 3.3 00:26:54 53° W 00:28:22 62° NW 00:36:25 10° NNE visible
01 May 5.0 02:15:35 10° WNW 02:21:10 20° NNW 02:26:53 10° NNE visible
01 May 5.5 04:13:11 10° NNW 04:15:55 12° N 04:18:38 10° NNE visible
01 May 4.3 21:54:58 18° E 21:54:58 18° E 21:58:40 10° ENE visible
01 May 2.9 23:42:17 69° SW 23:43:27 88° WNW 23:51:36 10° NNE visible
02 May 4.7 01:29:37 11° W 01:35:37 26° NW 01:42:14 10° NNE visible
02 May 5.5 03:26:47 10° NNW 03:29:55 12° N 03:33:04 10° NNE visible
02 May 5.5 05:20:21 10° NNW 05:24:56 16° NNE 05:29:25 10° NE visible
02 May 4.7 21:10:03 10° E 21:10:03 10° E 21:10:10 10° E visible
02 May 2.9 22:57:21 55° SSE 22:58:42 63° ESE 23:06:39 10° NE visible
